Theta_e
292 291 291 292 291 291 291 291 292 293 293 292 292 292 292 293 293 295 297 297 298 298 300 299 299 301 300 302 303 305 313 315 315 319 319 318 316 314
292 292 291 291 291 291 291 291 291 291 292 292 292 292 292 293 293 294 293 293 295 296 297 298 297 297 296 297 299 303 304 309 315 315 319 317 317 315
290 288 288 288 288 288 288 289 290 290 290 290 290 290 290 290 290 291 291 292 292 294 295 295 297 297 297 296 296 296 298 301 308 313 314 318 318 316
288 288 288 287 288 288 288 288 288 288 289 289 290 290 290 290 289 290 291 292 293 294 295 295 295 296 296 295 295 294 294 296 299 304 312 314 316 317
288 288 287 288 288 288 288 288 288 288 289 289 288 288 289 289 289 289 289 289 290 292 293 294 295 294 296 296 295 295 293 294 295 297 302 311 313 312
287 287 287 287 287 287 287 287 287 287 287 287 287 286 286 287 287 287 288 287 288 289 290 292 293 293 295 295 295 295 294 295 296 295 297 300 307 313
286 286 286 286 286 285 285 285 285 285 285 285 285 285 285 285 286 286 286 286 287 287 288 289 289 290 293 296 296 295 294 294 295 295 295 296 300 306
285 284 284 284 284 284 284 283 283 284 284 284 284 284 284 284 284 284 285 285 286 287 287 288 288 289 292 294 295 294 295 295 295 296 297 297 297 299
283 283 283 283 283 283 283 283 284 284 284 284 284 284 284 284 284 284 284 285 285 286 288 289 290 291 294 295 296 295 294 294 294 295 296 296 296 297
283 283 283 283 283 283 283 283 283 283 284 284 285 284 285 285 285 285 284 285 285 285 286 287 287 288 291 294 295 295 294 294 294 295 296 296 296 296
283 283 283 283 283 283 283 283 283 283 283 283 284 284 284 284 284 285 285 285 285 285 285 286 286 287 288 290 292 293 293 294 295 295 294 294 295 294
283 283 284 284 283 283 283 283 284 284 283 283 284 284 284 284 285 285 285 285 285 285 285 286 286 286 286 289 290 291 293 293 295 295 294 294 293 297
283 283 283 283 283 283 283 283 284 285 284 283 283 284 284 284 284 284 285 285 286 286 286 286 287 287 287 288 291 291 293 293 293 293 293 293 296 296
283 283 283 282 282 282 282 283 284 284 284 284 284 284 284 284 284 285 285 286 286 286 286 286 286 286 287 287 288 289 290 292 292 292 293 293 293 295
283 283 282 281 281 281 282 283 284 284 284 285 285 285 285 285 285 285 285 285 286 286 286 286 286 286 286 287 287 287 289 290 291 291 292 293 294 296
283 283 282 281 281 282 283 284 285 286 287 287 286 286 285 285 285 285 285 285 285 285 285 286 286 286 287 286 287 287 287 288 290 291 292 292 293 294
282 282 281 280 281 282 283 284 285 286 287 287 287 286 285 285 285 285 285 285 285 285 285 287 287 287 287 286 287 287 287 289 290 292 292 292 291 291
282 281 280 279 280 280 281 283 284 285 286 286 286 286 286 286 286 285 285 285 286 286 287 287 288 287 287 287 287 287 288 288 290 291 291 290 289 289
281 280 280 279 280 280 280 281 282 283 284 285 286 286 287 287 287 287 287 287 287 287 287 287 287 286 286 286 287 288 288 289 289 289 289 288 287 287
280 279 279 279 279 280 279 279 280 282 284 284 285 286 287 287 287 287 287 287 287 287 287 286 286 285 285 286 287 286 287 286 286 287 286 286 285 285
279 279 279 279 279 279 280 280 280 280 281 283 284 285 285 286 286 286 286 286 287 287 286 286 286 285 285 286 286 284 284 283 284 284 285 285 285 284
279 279 279 279 279 279 279 279 280 280 280 281 281 282 283 284 284 284 285 285 285 285 285 285 284 284 284 285 285 284 283 283 283 283 283 283 284 283
278 278 279 279 279 279 279 279 279 279 280 280 280 280 281 282 282 283 283 283 283 283 283 284 283 283 283 284 283 282 282 281 281 281 281 282 282 283
Wind_Speed
19 22 24 25 26 26 27 29 29 31 31 30 31 30 28 28 26 26 24 17 16 14 11 11 17 8 14 17 19 23 28 22 11 46 53 52 47 51
24 26 29 30 30 30 30 29 30 33 37 29 30 30 27 25 23 24 29 29 25 22 14 13 9 13 12 14 9 11 17 22 25 24 51 43 43 52
29 30 31 30 31 31 30 30 31 33 37 37 33 35 35 34 33 32 31 30 28 25 23 21 17 15 18 17 15 15 13 13 22 26 28 44 52 54
29 29 31 32 32 31 31 33 33 34 36 38 34 33 35 34 33 32 31 28 26 25 23 24 26 17 17 17 18 18 17 17 13 17 26 30 35 55
31 33 33 31 32 31 31 32 32 33 33 35 38 35 35 36 37 36 35 34 34 32 29 27 23 23 21 20 20 21 20 18 21 18 18 28 35 33
32 31 31 33 36 38 39 41 42 42 43 43 44 37 33 37 39 39 40 39 39 37 36 33 28 25 23 22 23 24 19 18 16 18 21 22 27 32
33 36 38 40 42 43 44 46 44 44 42 38 38 35 34 30 34 38 40 42 44 42 43 40 36 33 29 24 23 26 25 23 19 19 21 26 25 25
39 39 41 40 36 33 31 30 29 30 32 32 33 33 29 28 27 29 32 34 37 34 34 36 33 32 29 31 29 28 26 22 21 21 19 22 29 29
40 38 35 32 31 32 33 32 32 31 32 32 32 32 31 28 25 28 28 28 30 28 24 27 26 31 25 25 23 24 25 24 23 21 23 26 27 31
32 30 31 32 31 30 30 31 31 32 33 33 33 31 30 27 27 27 28 30 30 29 29 33 32 35 33 23 19 21 21 22 23 22 22 25 26 30
28 26 27 28 27 26 28 30 32 34 33 32 33 30 28 24 24 24 26 29 32 31 26 29 31 32 33 36 18 18 21 20 20 19 20 23 26 27
27 27 27 27 28 25 25 29 33 33 32 30 28 27 26 27 24 26 30 33 32 27 27 27 26 23 22 32 38 29 20 21 19 22 20 19 25 28
27 27 30 29 27 26 27 29 29 27 27 26 28 28 30 28 28 27 28 30 33 33 29 24 20 17 24 21 13 23 18 15 16 20 22 20 21 27
24 26 30 27 25 27 25 23 23 22 21 24 26 28 30 32 30 26 23 26 27 30 31 29 29 28 26 26 27 28 32 31 22 22 25 22 21 24
19 22 25 24 24 19 17 18 18 17 19 21 23 25 26 25 24 23 21 19 19 20 20 22 25 26 30 33 32 33 30 33 33 29 26 21 18 18
21 22 25 18 13 11 13 11 8 7 11 15 19 19 16 18 19 20 20 19 22 20 21 25 26 27 31 31 30 30 28 21 25 23 25 21 20 18
19 15 19 17 15 13 13 14 12 9 9 10 12 13 7 8 11 12 16 17 19 22 21 19 20 24 27 32 33 28 27 24 23 19 21 19 18 16
13 14 18 17 18 18 17 16 16 15 13 10 10 11 10 8 5 4 8 11 15 16 16 19 19 19 25 28 27 26 23 26 20 14 14 12 13 12
11 13 16 18 19 19 19 17 15 16 16 11 10 12 10 10 7 10 9 10 14 16 17 15 15 17 23 22 20 23 23 18 13 11 9 7 8 8
11 12 14 17 18 20 20 21 16 12 12 12 9 10 11 12 12 9 2 3 4 6 7 8 10 14 16 17 13 9 13 8 8 5 4 4 6 5
12 13 13 15 17 19 20 21 20 17 15 12 11 10 9 9 8 7 6 5 4 3 1 4 7 9 7 4 6 6 5 5 4 2 4 7 10 9
11 13 14 14 15 17 18 20 21 21 19 17 15 12 9 8 7 7 6 5 3 2 1 1 1 1 1 1 3 6 6 5 6 7 9 9 9 9
11 12 12 13 14 16 17 18 19 20 21 20 16 14 12 9 9 8 8 7 6 4 3 2 2 2 2 2 4 6 7 6 6 6 7 7 4 2
Wind_Direction
295 292 289 288 286 286 284 287 289 290 289 289 290 294 295 290 285 284 279 282 287 302 286 286 291 286 279 281 278 269 258 255 283 236 231 229 225 222
292 292 291 291 290 288 286 282 282 285 287 286 286 290 286 285 285 286 279 278 280 281 288 285 291 285 269 277 283 282 268 253 243 247 228 224 225 224
294 295 293 294 292 289 286 282 280 281 284 286 284 285 285 287 287 287 283 282 281 277 276 273 281 288 287 291 287 278 289 292 251 231 237 226 228 226
299 296 295 297 291 289 287 286 284 282 282 284 286 284 285 286 285 283 280 278 276 271 269 269 263 271 277 274 277 279 277 270 273 258 240 235 239 230
298 296 296 292 290 289 286 286 284 282 278 279 282 285 282 283 284 282 280 275 270 270 272 270 266 256 256 269 277 277 276 264 259 260 249 235 238 242
295 292 288 286 286 287 285 284 283 281 281 281 283 284 283 282 281 281 281 279 277 271 265 264 265 262 263 263 265 269 269 267 260 259 251 251 240 232
291 290 289 289 287 286 284 283 282 280 279 278 277 276 273 267 266 275 274 279 279 277 275 270 270 265 258 257 259 267 270 269 270 264 254 248 251 237
297 297 296 295 292 288 283 277 275 275 275 276 277 276 276 274 274 266 266 266 268 270 271 272 266 262 258 254 258 263 266 268 268 264 256 246 244 245
300 301 301 297 296 293 289 284 279 274 270 270 271 269 271 273 273 269 264 261 262 260 262 261 253 248 253 248 243 247 260 263 264 270 264 256 248 241
302 301 300 301 299 299 295 291 288 286 277 269 266 275 270 274 271 271 270 269 267 260 255 261 259 252 243 249 252 253 255 264 264 265 265 260 260 248
306 308 308 306 305 301 292 286 284 282 282 276 273 273 271 270 265 263 261 259 259 262 256 258 260 265 257 243 240 260 255 259 252 261 272 266 262 254
313 316 317 312 309 302 297 296 293 289 288 282 275 272 267 266 261 256 255 254 255 259 264 258 261 262 271 252 242 250 264 251 247 257 272 273 262 256
315 319 322 316 310 302 297 290 292 291 288 280 271 269 272 266 262 253 244 244 248 253 259 259 255 250 251 251 232 229 237 248 265 278 272 279 261 255
320 319 317 317 309 304 298 291 293 286 283 281 274 271 270 268 268 266 247 247 248 251 251 254 255 256 254 258 255 240 248 255 271 287 292 282 270 251
315 317 326 321 318 316 310 304 299 291 287 288 290 286 279 276 271 268 252 251 249 249 248 247 250 252 250 254 259 261 261 259 266 280 292 290 292 273
316 314 327 333 331 337 344 341 337 326 314 314 320 309 291 275 269 262 258 256 249 252 253 251 250 248 255 259 258 260 264 259 266 283 294 296 300 301
322 323 343 356 359 359 9 10 358 339 331 334 347 359 341 293 273 258 247 249 249 246 254 260 262 257 253 254 260 257 259 264 269 283 289 299 301 298
326 348 357 6 12 11 6 10 13 11 2 346 353 354 348 332 322 249 230 232 239 252 270 274 270 254 240 243 250 257 253 259 256 276 289 298 294 289
347 3 5 10 14 17 17 11 10 14 11 14 7 357 15 14 316 277 268 255 262 271 280 279 268 245 231 228 238 245 240 237 250 265 279 294 288 274
7 11 10 17 19 18 19 20 17 13 18 23 21 21 22 20 31 41 352 294 303 291 282 264 240 231 239 238 225 209 219 232 247 260 245 227 215 195
13 17 15 15 20 23 23 24 28 26 21 13 13 12 14 18 27 33 33 42 45 20 281 229 234 244 257 247 194 155 155 162 173 163 215 206 195 180
14 17 19 17 16 18 21 23 28 32 31 27 21 17 17 10 21 28 30 27 44 75 11 331 121 100 189 222 175 164 160 168 159 176 178 206 201 201
12 14 15 17 17 19 20 22 27 29 31 30 24 23 22 22 32 37 45 45 47 51 78 113 147 131 56 118 171 165 152 141 154 168 186 198 157 167